This is the latest recevied weather packets stored in our database for station/object SP1BMW-13. If no packets are shown the sender has not sent any weather packets the latest 10 day(s).
| Time | Temp. | Humidity | Pressure | Rain* | Wind** | Luminosity | Snow |
|---|---|---|---|---|---|---|---|
| 1787405582 | 20° C | 52% | 1010.6 hPa | 0 mm | 1.79 m/s, 264° | 181 W/m² | - |
| 1787405522 | 20° C | 52% | 1010.5 hPa | 0 mm | 1.79 m/s, 258° | 181 W/m² | - |
| 1787405462 | 20° C | 53% | 1010.4 hPa | 0 mm | 0.89 m/s, 256° | 192 W/m² | - |
| 1787405402 | 20° C | 53% | 1010.7 hPa | 0 mm | 1.34 m/s, 252° | 203 W/m² | - |
| 1787405342 | 20° C | 52% | 1010.4 hPa | 0 mm | 2.24 m/s, 303° | 207 W/m² | - |
| 1787405282 | 20° C | 53% | 1010.7 hPa | 0 mm | 1.79 m/s, 266° | 210 W/m² | - |
| 1787405222 | 20.56° C | 53% | 1010.4 hPa | 0 mm | 0.89 m/s, 264° | 213 W/m² | - |
| 1787405162 | 20.56° C | 52% | 1010.4 hPa | 0 mm | 2.68 m/s, 264° | 213 W/m² | - |
| 1787405102 | 20.56° C | 51% | 1010.4 hPa | 0 mm | 2.68 m/s, 236° | 211 W/m² | - |
| 1787405042 | 20.56° C | 52% | 1010.4 hPa | 0 mm | 0.89 m/s, 125° | 213 W/m² | - |
| 1787404982 | 20.56° C | 52% | 1010.4 hPa | 0 mm | 0.89 m/s, 281° | 220 W/m² | - |
| 1787404922 | 20.56° C | 52% | 1010.5 hPa | 0 mm | 1.34 m/s, 244° | 229 W/m² | - |
| 1787404862 | 20° C | 51% | 1010.4 hPa | 0 mm | 2.68 m/s, 255° | 245 W/m² | - |
| 1787404802 | 20° C | 52% | 1010.5 hPa | 0 mm | 2.24 m/s, 286° | 475 W/m² | - |
| 1787404742 | 20° C | 53% | 1010.4 hPa | 0 mm | 2.24 m/s, 274° | 702 W/m² | - |
| 1787404682 | 20° C | 53% | 1010.5 hPa | 0 mm | 1.79 m/s, 278° | 351 W/m² | - |
| 1787404622 | 20° C | 54% | 1010.7 hPa | 0 mm | 0.89 m/s, 219° | 734 W/m² | - |
| 1787404502 | 20° C | 53% | 1010.5 hPa | 0 mm | 2.24 m/s, 270° | 205 W/m² | - |
| 1787404441 | 20° C | 54% | 1010.3 hPa | 0 mm | 2.24 m/s, 257° | 207 W/m² | - |
| 1787404381 | 20° C | 54% | 1010.3 hPa | 0 mm | 2.24 m/s, 139° | 211 W/m² | - |
| 1787404322 | 20° C | 54% | 1010.3 hPa | 0 mm | 2.68 m/s, 181° | 217 W/m² | - |
| 1787404261 | 20° C | 55% | 1010.5 hPa | 0 mm | 1.79 m/s, 266° | 224 W/m² | - |
| 1787404201 | 20° C | 54% | 1010.4 hPa | 0 mm | 1.34 m/s, 252° | 223 W/m² | - |
| 1787404142 | 20° C | 55% | 1010.3 hPa | 0 mm | 1.79 m/s, 265° | 244 W/m² | - |
| 1787404082 | 20° C | 53% | 1010.3 hPa | 0 mm | 2.68 m/s, 310° | 270 W/m² | - |
* Rain latest hour (hover to see other rain measurements)
** Current wind speed in m/s (hover to see current wind gust speed)